Time,TemperatureF,DewpointF,PressureIn,WindDirection,WindDirectionDegrees,WindSpeedMPH,WindSpeedGustMPH,Humidity,HourlyPrecipIn,Conditions,Clouds,dailyrainin,SoftwareType,DateUTC
2013-08-13 00:00:00,57.8,44.0,29.95,ESE,122,0.0,5.0,60,0.00,CLR,CLR,0.00,WeatherDisplay:10.37,2013-08-13 06:00:00,
2013-08-13 00:05:00,57.4,44.1,29.95,ESE,118,2.0,6.0,61,0.00,CLR,CLR,0.00,WeatherDisplay:10.37,2013-08-13 06:05:00,
2013-08-13 00:10:00,57.3,44.4,29.94,ESE,115,0.0,2.0,62,0.00,CLR,CLR,0.00,WeatherDisplay:10.37,2013-08-13 06:10:00,
2013-08-13 00:15:00,57.0,44.5,29.94,ESE,111,0.0,1.0,63,0.00,CLR,CLR,0.00,WeatherDisplay:10.37,2013-08-13 06:15:00,
2013-08-13 00:20:00,57.1,45.0,29.94,ESE,104,0.0,0.0,64,0.00,CLR,CLR,0.00,WeatherDisplay:10.37,2013-08-13 06:20:00,
2013-08-13 00:25:00,57.1,45.0,29.94,East,98,0.0,4.0,64,0.00,CLR,CLR,0.00,WeatherDisplay:10.37,2013-08-13 06:25:00,
2013-08-13 00:30:00,57.2,45.5,29.94,East,95,0.0,4.0,65,0.00,CLR,CLR,0.00,WeatherDisplay:10.37,2013-08-13 06:30:00,
2013-08-13 00:35:00,57.1,45.4,29.94,East,91,0.0,3.0,65,0.00,CLR,CLR,0.00,WeatherDisplay:10.37,2013-08-13 06:35:00,
2013-08-13 00:40:00,57.1,45.4,29.94,East,87,0.0,0.0,65,0.00,CLR,CLR,0.00,WeatherDisplay:10.37,2013-08-13 06:40:00,
2013-08-13 00:45:00,57.0,45.3,29.94,East,87,0.0,0.0,65,0.00,CLR,CLR,0.00,WeatherDisplay:10.37,2013-08-13 06:45:00,
2013-08-13 00:50:00,57.0,45.3,29.94,East,87,0.0,0.0,65,0.00,CLR,CLR,0.00,WeatherDisplay:10.37,2013-08-13 06:50:00,
2013-08-13 01:00:00,57.5,45.4,29.94,ENE,74,0.0,2.0,64,0.00,CLR,CLR,0.00,WeatherDisplay:10.37,2013-08-13 07:00:00,
2013-08-13 01:05:00,57.4,45.3,29.93,East,80,0.0,4.0,64,0.00,CLR,CLR,0.00,WeatherDisplay:10.37,2013-08-13 07:05:00,
2013-08-13 01:10:00,57.2,45.6,29.93,East,95,0.0,0.0,65,0.00,CLR,CLR,0.00,WeatherDisplay:10.37,2013-08-13 07:10:00,
2013-08-13 01:15:00,56.9,45.3,29.93,East,96,0.0,0.0,65,0.00,CLR,CLR,0.00,WeatherDisplay:10.37,2013-08-13 07:15:00,
2013-08-13 01:20:00,56.6,45.4,29.93,East,96,1.0,7.0,66,0.00,CLR,CLR,0.00,WeatherDisplay:10.37,2013-08-13 07:20:00,
2013-08-13 01:25:00,56.6,45.4,29.93,East,92,0.0,5.0,66,0.00,CLR,CLR,0.00,WeatherDisplay:10.37,2013-08-13 07:25:00,
2013-08-13 01:30:00,57.0,45.3,29.94,ESE,107,1.0,5.0,65,0.00,CLR,CLR,0.00,WeatherDisplay:10.37,2013-08-13 07:30:00,
2013-08-13 01:35:00,57.1,45.0,29.94,ESE,121,0.0,4.0,64,0.00,CLR,CLR,0.00,WeatherDisplay:10.37,2013-08-13 07:35:00,
2013-08-13 01:40:00,57.2,44.7,29.93,ESE,104,2.0,10.0,63,0.00,CLR,CLR,0.00,WeatherDisplay:10.37,2013-08-13 07:40:00,
2013-08-13 01:45:00,57.1,45.0,29.93,East,95,0.0,3.0,64,0.00,CLR,CLR,0.00,WeatherDisplay:10.37,2013-08-13 07:45:00,
2013-08-13 01:50:00,57.0,44.9,29.93,East,99,0.0,7.0,64,0.00,CLR,CLR,0.00,WeatherDisplay:10.37,2013-08-13 07:50:00,
2013-08-13 01:55:00,56.3,43.9,29.94,ESE,122,0.0,6.0,63,0.00,CLR,CLR,0.00,WeatherDisplay:10.37,2013-08-13 07:55:00,
2013-08-13 02:00:00,55.4,43.4,29.93,SE,130,0.0,6.0,64,0.00,CLR,CLR,0.00,WeatherDisplay:10.37,2013-08-13 08:00:00,
2013-08-13 02:05:00,54.4,42.8,29.94,SE,125,0.0,3.0,65,0.00,CLR,CLR,0.00,WeatherDisplay:10.37,2013-08-13 08:05:00,
2013-08-13 02:10:00,52.9,42.2,29.94,ESE,119,0.0,0.0,67,0.00,CLR,CLR,0.00,WeatherDisplay:10.37,2013-08-13 08:10:00,
2013-08-13 02:15:00,52.0,42.2,29.94,SE,124,0.0,1.0,69,0.00,CLR,CLR,0.00,WeatherDisplay:10.37,2013-08-13 08:15:00,
2013-08-13 02:20:00,52.0,42.8,29.95,SE,128,0.0,3.0,71,0.00,CLR,CLR,0.00,WeatherDisplay:10.37,2013-08-13 08:20:00,
2013-08-13 02:25:00,52.6,43.1,29.95,ESE,121,0.0,7.0,70,0.00,CLR,CLR,0.00,WeatherDisplay:10.37,2013-08-13 08:25:00,
2013-08-13 02:30:00,53.0,43.1,29.95,ESE,123,0.0,6.0,69,0.00,CLR,CLR,0.00,WeatherDisplay:10.37,2013-08-13 08:30:00,
2013-08-13 02:35:00,53.3,43.4,29.95,SE,129,2.0,7.0,69,0.00,CLR,CLR,0.00,WeatherDisplay:10.37,2013-08-13 08:35:00,
2013-08-13 02:40:00,53.4,43.1,29.95,SE,130,0.0,3.0,68,0.00,CLR,CLR,0.00,WeatherDisplay:10.37,2013-08-13 08:40:00,
2013-08-13 02:45:00,53.3,42.6,29.95,SE,127,0.0,2.0,67,0.00,CLR,CLR,0.00,WeatherDisplay:10.37,2013-08-13 08:45:00,
2013-08-13 02:50:00,52.8,42.5,29.95,SE,132,1.0,4.0,68,0.00,CLR,CLR,0.00,WeatherDisplay:10.37,2013-08-13 08:50:00,
2013-08-13 02:55:00,52.3,42.4,29.95,SE,135,0.0,4.0,69,0.00,CLR,CLR,0.00,WeatherDisplay:10.37,2013-08-13 08:55:00,
2013-08-13 03:00:00,51.7,41.8,29.95,SE,130,0.0,0.0,69,0.00,CLR,CLR,0.00,WeatherDisplay:10.37,2013-08-13 09:00:00,
2013-08-13 03:05:00,51.1,42.4,29.95,SE,127,0.0,0.0,72,0.00,CLR,CLR,0.00,WeatherDisplay:10.37,2013-08-13 09:05:00,
2013-08-13 03:10:00,50.6,41.9,29.96,SE,127,0.0,0.0,72,0.00,CLR,CLR,0.00,WeatherDisplay:10.37,2013-08-13 09:10:00,
2013-08-13 03:20:00,50.6,41.9,29.96,SE,126,0.0,0.0,72,0.00,CLR,CLR,0.00,WeatherDisplay:10.37,2013-08-13 09:20:00,
2013-08-13 03:25:00,51.2,42.1,29.96,SE,126,0.0,0.0,71,0.00,CLR,CLR,0.00,WeatherDisplay:10.37,2013-08-13 09:25:00,
2013-08-13 03:30:00,51.2,42.1,29.96,SE,126,0.0,0.0,71,0.00,CLR,CLR,0.00,WeatherDisplay:10.37,2013-08-13 09:30:00,
2013-08-13 03:35:00,50.9,41.9,29.97,SE,126,0.0,0.0,71,0.00,CLR,CLR,0.00,WeatherDisplay:10.37,2013-08-13 09:35:00,
2013-08-13 03:40:00,50.6,42.3,29.97,ESE,123,0.0,4.0,73,0.00,CLR,CLR,0.00,WeatherDisplay:10.37,2013-08-13 09:40:00,
2013-08-13 03:45:00,50.6,42.3,29.97,SE,124,2.0,6.0,73,0.00,CLR,CLR,0.00,WeatherDisplay:10.37,2013-08-13 09:45:00,
2013-08-13 03:50:00,50.7,42.0,29.97,SE,134,3.0,5.0,72,0.00,CLR,CLR,0.00,WeatherDisplay:10.37,2013-08-13 09:50:00,
2013-08-13 03:55:00,50.3,41.6,29.97,SE,139,0.0,2.0,72,0.00,CLR,CLR,0.00,WeatherDisplay:10.37,2013-08-13 09:55:00,
2013-08-13 04:00:00,50.1,41.8,29.97,SE,140,0.0,0.0,73,0.00,CLR,CLR,0.00,WeatherDisplay:10.37,2013-08-13 10:00:00,
2013-08-13 04:05:00,50.1,41.7,29.97,SE,140,0.0,0.0,73,0.00,CLR,CLR,0.00,WeatherDisplay:10.37,2013-08-13 10:05:00,
2013-08-13 04:10:00,49.6,41.7,29.97,SE,140,0.0,0.0,74,0.00,CLR,CLR,0.00,WeatherDisplay:10.37,2013-08-13 10:10:00,
2013-08-13 04:15:00,49.2,41.6,29.97,SE,140,0.0,0.0,75,0.00,CLR,CLR,0.00,WeatherDisplay:10.37,2013-08-13 10:15:00,
2013-08-13 04:20:00,49.2,41.6,29.97,SE,138,0.0,2.0,75,0.00,CLR,CLR,0.00,WeatherDisplay:10.37,2013-08-13 10:20:00,
2013-08-13 04:25:00,49.5,41.5,29.97,SE,135,0.0,3.0,74,0.00,CLR,CLR,0.00,WeatherDisplay:10.37,2013-08-13 10:25:00,
2013-08-13 04:30:00,49.1,41.5,29.97,SE,135,0.0,0.0,75,0.00,CLR,CLR,0.00,WeatherDisplay:10.37,2013-08-13 10:30:00,
2013-08-13 04:35:00,48.9,41.3,29.97,SE,136,0.0,3.0,75,0.00,CLR,CLR,0.00,WeatherDisplay:10.37,2013-08-13 10:35:00,
2013-08-13 04:40:00,48.9,41.3,29.97,SE,124,0.0,4.0,75,0.00,CLR,CLR,0.00,WeatherDisplay:10.37,2013-08-13 10:40:00,
2013-08-13 04:45:00,48.9,41.7,29.97,ESE,116,1.0,4.0,76,0.00,CLR,CLR,0.00,WeatherDisplay:10.37,2013-08-13 10:45:00,
2013-08-13 04:55:00,49.0,41.8,29.96,SE,126,0.0,4.0,76,0.00,CLR,CLR,0.00,WeatherDisplay:10.37,2013-08-13 10:55:00,
2013-08-13 05:00:00,49.1,41.9,29.97,SE,124,0.0,0.0,76,0.00,CLR,CLR,0.00,WeatherDisplay:10.37,2013-08-13 11:00:00,
2013-08-13 05:05:00,49.0,41.5,29.97,SE,125,0.0,0.0,75,0.00,CLR,CLR,0.00,WeatherDisplay:10.37,2013-08-13 11:05:00,
2013-08-13 05:10:00,48.8,41.2,29.97,SE,125,0.0,0.0,75,0.00,CLR,CLR,0.00,WeatherDisplay:10.37,2013-08-13 11:10:00,
2013-08-13 05:20:00,48.3,41.1,29.97,SE,125,0.0,0.0,76,0.00,CLR,CLR,0.00,WeatherDisplay:10.37,2013-08-13 11:20:00,
2013-08-13 05:25:00,47.9,41.0,29.97,SE,125,0.0,0.0,77,0.00,CLR,CLR,0.00,WeatherDisplay:10.37,2013-08-13 11:25:00,
2013-08-13 05:30:00,47.6,41.1,29.97,SE,125,0.0,2.0,78,0.00,CLR,CLR,0.00,WeatherDisplay:10.37,2013-08-13 11:30:00,
2013-08-13 05:35:00,47.4,40.9,29.97,SE,125,0.0,0.0,78,0.00,CLR,CLR,0.00,WeatherDisplay:10.37,2013-08-13 11:35:00,
2013-08-13 05:40:00,47.3,41.1,29.97,SE,125,0.0,0.0,79,0.00,CLR,CLR,0.00,WeatherDisplay:10.37,2013-08-13 11:40:00,
2013-08-13 05:50:00,47.0,40.8,29.97,SE,125,0.0,0.0,79,0.00,CLR,CLR,0.00,WeatherDisplay:10.37,2013-08-13 11:50:00,
2013-08-13 05:55:00,46.8,40.7,29.97,SE,125,0.0,0.0,79,0.00,CLR,CLR,0.00,WeatherDisplay:10.37,2013-08-13 11:55:00,
2013-08-13 06:00:00,46.7,40.5,29.97,SE,125,0.0,0.0,79,0.00,CLR,CLR,0.00,WeatherDisplay:10.37,2013-08-13 12:00:00,
2013-08-13 06:05:00,46.3,40.5,29.97,SE,125,0.0,0.0,80,0.00,CLR,CLR,0.00,WeatherDisplay:10.37,2013-08-13 12:05:00,
2013-08-13 06:10:00,45.9,40.1,29.97,SE,125,0.0,0.0,80,0.00,CLR,CLR,0.00,WeatherDisplay:10.37,2013-08-13 12:10:00,
2013-08-13 06:20:00,45.4,39.9,29.98,SE,125,0.0,0.0,81,0.00,CLR,CLR,0.00,WeatherDisplay:10.37,2013-08-13 12:20:00,
2013-08-13 06:25:00,45.3,40.1,29.98,SE,125,0.0,0.0,82,0.00,CLR,CLR,0.00,WeatherDisplay:10.37,2013-08-13 12:25:00,
2013-08-13 06:30:00,45.4,40.5,29.98,SE,125,0.0,2.0,83,0.00,CLR,CLR,0.00,WeatherDisplay:10.37,2013-08-13 12:30:00,
2013-08-13 06:35:00,45.9,40.7,29.98,SE,125,0.0,0.0,82,0.00,CLR,CLR,0.00,WeatherDisplay:10.37,2013-08-13 12:35:00,
2013-08-13 06:40:00,46.0,40.5,29.99,SE,125,0.0,0.0,81,0.00,CLR,CLR,0.00,WeatherDisplay:10.37,2013-08-13 12:40:00,
2013-08-13 06:50:00,45.9,40.7,29.99,SE,125,0.0,2.0,82,0.00,CLR,CLR,0.00,WeatherDisplay:10.37,2013-08-13 12:50:00,
2013-08-13 06:55:00,47.0,41.5,29.99,SE,127,0.0,0.0,81,0.00,CLR,CLR,0.00,WeatherDisplay:10.37,2013-08-13 12:55:00,
2013-08-13 07:00:00,47.9,42.0,29.99,SE,128,0.0,0.0,80,0.00,CLR,CLR,0.00,WeatherDisplay:10.37,2013-08-13 13:00:00,
2013-08-13 07:05:00,48.5,42.3,29.99,SE,128,0.0,0.0,79,0.00,CLR,CLR,0.00,WeatherDisplay:10.37,2013-08-13 13:05:00,
2013-08-13 07:10:00,49.0,42.4,29.99,SE,128,0.0,0.0,78,0.00,CLR,CLR,0.00,WeatherDisplay:10.37,2013-08-13 13:10:00,
2013-08-13 07:15:00,49.4,42.8,29.99,SE,128,0.0,0.0,78,0.00,CLR,CLR,0.00,WeatherDisplay:10.37,2013-08-13 13:15:00,
2013-08-13 07:20:00,50.1,43.1,29.99,SE,128,0.0,0.0,77,0.00,CLR,CLR,0.00,WeatherDisplay:10.37,2013-08-13 13:20:00,
2013-08-13 07:25:00,50.9,43.6,29.99,SE,128,0.0,0.0,76,0.00,CLR,CLR,0.00,WeatherDisplay:10.37,2013-08-13 13:25:00,
2013-08-13 07:30:00,51.7,44.4,29.99,SE,128,0.0,0.0,76,0.00,CLR,CLR,0.00,WeatherDisplay:10.37,2013-08-13 13:30:00,
2013-08-13 07:35:00,52.7,45.3,29.99,SE,128,0.0,0.0,76,0.00,CLR,CLR,0.00,WeatherDisplay:10.37,2013-08-13 13:35:00,
2013-08-13 07:40:00,53.7,44.9,29.99,SE,128,0.0,0.0,72,0.00,CLR,CLR,0.00,WeatherDisplay:10.37,2013-08-13 13:40:00,
2013-08-13 07:50:00,55.6,46.7,29.99,SE,128,0.0,0.0,72,0.00,CLR,CLR,0.00,WeatherDisplay:10.37,2013-08-13 13:50:00,
2013-08-13 07:55:00,56.4,46.4,29.99,SE,128,0.0,0.0,69,0.00,CLR,CLR,0.00,WeatherDisplay:10.37,2013-08-13 13:55:00,
2013-08-13 08:05:00,58.1,48.0,29.99,SE,128,0.0,0.0,69,0.00,CLR,CLR,0.00,WeatherDisplay:10.37,2013-08-13 14:05:00,
2013-08-13 08:10:00,59.0,47.7,29.99,SE,128,0.0,0.0,66,0.00,CLR,CLR,0.00,WeatherDisplay:10.37,2013-08-13 14:10:00,
2013-08-13 08:15:00,59.4,47.7,29.99,SE,128,0.0,0.0,65,0.00,CLR,CLR,0.00,WeatherDisplay:10.37,2013-08-13 14:15:00,
2013-08-13 08:20:00,59.8,47.6,29.99,SE,128,0.0,0.0,64,0.00,CLR,CLR,0.00,WeatherDisplay:10.37,2013-08-13 14:20:00,
2013-08-13 08:25:00,60.4,47.3,29.99,SE,128,0.0,0.0,62,0.00,CLR,CLR,0.00,WeatherDisplay:10.37,2013-08-13 14:25:00,
2013-08-13 08:30:00,60.9,46.1,29.99,SE,128,0.0,0.0,58,0.00,CLR,CLR,0.00,WeatherDisplay:10.37,2013-08-13 14:30:00,
2013-08-13 08:35:00,61.5,46.5,29.99,SE,128,0.0,0.0,58,0.00,CLR,CLR,0.00,WeatherDisplay:10.37,2013-08-13 14:35:00,
2013-08-13 08:40:00,61.8,46.4,29.99,SE,128,0.0,0.0,57,0.00,CLR,CLR,0.00,WeatherDisplay:10.37,2013-08-13 14:40:00,
2013-08-13 08:45:00,62.3,46.9,29.99,SE,128,0.0,0.0,57,0.00,CLR,CLR,0.00,WeatherDisplay:10.37,2013-08-13 14:45:00,
2013-08-13 08:50:00,62.7,46.3,29.99,SE,128,0.0,0.0,55,0.00,CLR,CLR,0.00,WeatherDisplay:10.37,2013-08-13 14:50:00,
2013-08-13 08:55:00,62.5,46.1,29.99,SE,129,0.0,0.0,55,0.00,CLR,CLR,0.00,WeatherDisplay:10.37,2013-08-13 14:55:00,
2013-08-13 09:00:00,62.4,45.0,30.00,SE,136,0.0,0.0,53,0.00,CLR,CLR,0.00,WeatherDisplay:10.37,2013-08-13 15:00:00,
2013-08-13 09:05:00,62.8,46.3,30.00,SE,143,0.0,1.0,55,0.00,CLR,CLR,0.00,WeatherDisplay:10.37,2013-08-13 15:05:00,
2013-08-13 09:10:00,62.7,45.8,30.00,ESE,120,0.0,5.0,54,0.00,CLR,CLR,0.00,WeatherDisplay:10.37,2013-08-13 15:10:00,
2013-08-13 09:20:00,63.1,45.7,29.99,WNW,291,0.0,4.0,53,0.00,CLR,CLR,0.00,WeatherDisplay:10.37,2013-08-13 15:20:00,
2013-08-13 09:25:00,63.5,46.5,29.99,WNW,302,0.0,1.0,54,0.00,CLR,CLR,0.00,WeatherDisplay:10.37,2013-08-13 15:25:00,
2013-08-13 09:30:00,63.9,45.9,29.99,NW,315,1.0,5.0,52,0.00,CLR,CLR,0.00,WeatherDisplay:10.37,2013-08-13 15:30:00,
2013-08-13 09:35:00,64.3,46.8,29.99,NW,314,0.0,3.0,53,0.00,CLR,CLR,0.00,WeatherDisplay:10.37,2013-08-13 15:35:00,
2013-08-13 09:40:00,64.8,47.7,29.99,WNW,294,0.0,0.0,54,0.00,CLR,CLR,0.00,WeatherDisplay:10.37,2013-08-13 15:40:00,
2013-08-13 09:45:00,65.3,46.7,29.99,WNW,286,0.0,2.0,51,0.00,CLR,CLR,0.00,WeatherDisplay:10.37,2013-08-13 15:45:00,
2013-08-13 09:50:00,65.6,45.4,29.99,WNW,297,0.0,0.0,48,0.00,CLR,CLR,0.00,WeatherDisplay:10.37,2013-08-13 15:50:00,
2013-08-13 09:55:00,65.8,46.1,29.99,WNW,300,1.0,5.0,49,0.00,CLR,CLR,0.00,WeatherDisplay:10.37,2013-08-13 15:55:00,
2013-08-13 10:00:00,66.2,47.5,29.99,WNW,284,0.0,0.0,51,0.00,CLR,CLR,0.00,WeatherDisplay:10.37,2013-08-13 16:00:00,
2013-08-13 10:05:00,66.8,47.0,29.99,West,275,0.0,3.0,49,0.00,CLR,CLR,0.00,WeatherDisplay:10.37,2013-08-13 16:05:00,
2013-08-13 10:10:00,67.2,46.3,29.99,WNW,296,0.0,3.0,47,0.00,CLR,CLR,0.00,WeatherDisplay:10.37,2013-08-13 16:10:00,
2013-08-13 10:15:00,67.5,46.6,29.99,WNW,294,0.0,2.0,47,0.00,CLR,CLR,0.00,WeatherDisplay:10.37,2013-08-13 16:15:00,
2013-08-13 10:20:00,67.8,47.4,29.99,West,270,0.0,0.0,48,0.00,CLR,CLR,0.00,WeatherDisplay:10.37,2013-08-13 16:20:00,
2013-08-13 10:25:00,68.4,46.8,29.99,WNW,287,0.0,3.0,46,0.00,CLR,CLR,0.00,WeatherDisplay:10.37,2013-08-13 16:25:00,
2013-08-13 10:30:00,68.9,47.2,29.99,WNW,303,0.0,2.0,46,0.00,CLR,CLR,0.00,WeatherDisplay:10.37,2013-08-13 16:30:00,
2013-08-13 10:35:00,69.2,46.4,29.99,WNW,298,0.0,3.0,44,0.00,CLR,CLR,0.00,WeatherDisplay:10.37,2013-08-13 16:35:00,
2013-08-13 10:40:00,69.5,46.6,29.99,WNW,302,0.0,0.0,44,0.00,CLR,CLR,0.00,WeatherDisplay:10.37,2013-08-13 16:40:00,
2013-08-13 10:45:00,69.9,48.2,29.99,NW,306,0.0,0.0,46,0.00,CLR,CLR,0.00,WeatherDisplay:10.37,2013-08-13 16:45:00,
2013-08-13 10:50:00,70.5,47.5,29.99,NW,306,0.0,3.0,44,0.00,CLR,CLR,0.00,WeatherDisplay:10.37,2013-08-13 16:50:00,
2013-08-13 10:55:00,70.9,46.7,29.99,WNW,303,0.0,1.0,42,0.00,CLR,CLR,0.00,WeatherDisplay:10.37,2013-08-13 16:55:00,
2013-08-13 11:00:00,71.2,46.3,29.99,WNW,291,0.0,3.0,41,0.00,CLR,CLR,0.00,WeatherDisplay:10.37,2013-08-13 17:00:00,
2013-08-13 11:05:00,71.5,45.9,29.99,WNW,287,0.0,0.0,40,0.00,CLR,CLR,0.00,WeatherDisplay:10.37,2013-08-13 17:05:00,
2013-08-13 11:15:00,72.4,47.4,29.99,WNW,295,0.0,0.0,41,0.00,CLR,CLR,0.00,WeatherDisplay:10.37,2013-08-13 17:15:00,
2013-08-13 11:20:00,73.0,46.5,29.99,WNW,298,0.0,2.0,39,0.00,CLR,CLR,0.00,WeatherDisplay:10.37,2013-08-13 17:20:00,
2013-08-13 11:25:00,73.2,46.8,29.99,NW,311,0.0,3.0,39,0.00,CLR,CLR,0.00,WeatherDisplay:10.37,2013-08-13 17:25:00,
2013-08-13 11:30:00,73.7,48.5,29.98,WNW,294,0.0,0.0,41,0.00,CLR,CLR,0.00,WeatherDisplay:10.37,2013-08-13 17:30:00,
2013-08-13 11:35:00,74.3,47.7,29.98,West,271,0.0,4.0,39,0.00,CLR,CLR,0.00,WeatherDisplay:10.37,2013-08-13 17:35:00,
2013-08-13 11:40:00,74.7,48.1,29.98,WSW,244,0.0,0.0,39,0.00,CLR,CLR,0.00,WeatherDisplay:10.37,2013-08-13 17:40:00,
2013-08-13 11:45:00,75.1,49.8,29.98,WSW,239,0.0,4.0,41,0.00,CLR,CLR,0.00,WeatherDisplay:10.37,2013-08-13 17:45:00,
2013-08-13 11:50:00,75.6,48.2,29.98,WSW,238,0.0,5.0,38,0.00,CLR,CLR,0.00,WeatherDisplay:10.37,2013-08-13 17:50:00,
2013-08-13 11:55:00,76.0,48.6,29.97,WSW,254,0.0,3.0,38,0.00,CLR,CLR,0.00,WeatherDisplay:10.37,2013-08-13 17:55:00,
2013-08-13 12:00:00,76.1,48.6,29.97,West,267,0.0,4.0,38,0.00,CLR,CLR,0.00,WeatherDisplay:10.37,2013-08-13 18:00:00,
2013-08-13 12:05:00,76.4,47.5,29.96,West,269,2.0,5.0,36,0.00,CLR,CLR,0.00,WeatherDisplay:10.37,2013-08-13 18:05:00,
2013-08-13 12:10:00,76.6,46.9,29.96,West,269,0.0,3.0,35,0.00,CLR,CLR,0.00,WeatherDisplay:10.37,2013-08-13 18:10:00,
2013-08-13 12:15:00,76.9,47.2,29.96,West,276,0.0,4.0,35,0.00,CLR,CLR,0.00,WeatherDisplay:10.37,2013-08-13 18:15:00,
2013-08-13 12:20:00,77.3,46.7,29.96,West,278,1.0,6.0,34,0.00,CLR,CLR,0.00,WeatherDisplay:10.37,2013-08-13 18:20:00,
2013-08-13 12:25:00,77.3,45.9,29.95,West,271,2.0,6.0,33,0.00,CLR,CLR,0.00,WeatherDisplay:10.37,2013-08-13 18:25:00,
2013-08-13 12:30:00,77.3,45.9,29.95,WSW,247,0.0,7.0,33,0.00,CLR,CLR,0.00,WeatherDisplay:10.37,2013-08-13 18:30:00,
2013-08-13 12:35:00,77.9,48.0,29.95,SW,235,2.0,7.0,35,0.00,CLR,CLR,0.00,WeatherDisplay:10.37,2013-08-13 18:35:00,
2013-08-13 12:40:00,78.3,45.1,29.95,WSW,257,1.0,7.0,31,0.00,CLR,CLR,0.00,WeatherDisplay:10.37,2013-08-13 18:40:00,
2013-08-13 12:45:00,78.7,47.2,29.95,West,266,3.0,12.0,33,0.00,CLR,CLR,0.00,WeatherDisplay:10.37,2013-08-13 18:45:00,
2013-08-13 12:50:00,78.7,44.7,29.94,West,262,2.0,12.0,30,0.00,CLR,CLR,0.00,WeatherDisplay:10.37,2013-08-13 18:50:00,
2013-08-13 12:55:00,78.7,46.4,29.94,WSW,251,1.0,6.0,32,0.00,CLR,CLR,0.00,WeatherDisplay:10.37,2013-08-13 18:55:00,
2013-08-13 13:00:00,78.7,46.4,29.94,SW,229,0.0,10.0,32,0.00,CLR,CLR,0.00,WeatherDisplay:10.37,2013-08-13 19:00:00,
2013-08-13 13:05:00,79.1,45.9,29.94,SW,236,3.0,12.0,31,0.00,CLR,CLR,0.00,WeatherDisplay:10.37,2013-08-13 19:05:00,
2013-08-13 13:10:00,79.3,46.0,29.94,WSW,240,1.0,10.0,31,0.00,CLR,CLR,0.00,WeatherDisplay:10.37,2013-08-13 19:10:00,
2013-08-13 13:15:00,79.6,45.5,29.93,WSW,240,0.0,8.0,30,0.00,CLR,CLR,0.00,WeatherDisplay:10.37,2013-08-13 19:15:00,
2013-08-13 13:20:00,79.6,44.6,29.93,SW,225,1.0,10.0,29,0.00,CLR,CLR,0.00,WeatherDisplay:10.37,2013-08-13 19:20:00,
2013-08-13 13:30:00,79.9,43.9,29.93,WNW,286,2.0,12.0,28,0.00,CLR,CLR,0.00,WeatherDisplay:10.37,2013-08-13 19:30:00,
2013-08-13 13:35:00,80.0,44.9,29.93,NW,314,0.0,9.0,29,0.00,CLR,CLR,0.00,WeatherDisplay:10.37,2013-08-13 19:35:00,
2013-08-13 13:40:00,80.1,44.0,29.93,NW,307,1.0,4.0,28,0.00,CLR,CLR,0.00,WeatherDisplay:10.37,2013-08-13 19:40:00,
2013-08-13 13:45:00,80.2,44.1,29.93,NW,304,3.0,12.0,28,0.00,CLR,CLR,0.00,WeatherDisplay:10.37,2013-08-13 19:45:00,
2013-08-13 13:50:00,80.1,42.1,29.93,WNW,302,2.0,12.0,26,0.00,CLR,CLR,0.00,WeatherDisplay:10.37,2013-08-13 19:50:00,
2013-08-13 13:55:00,80.2,44.2,29.93,NW,307,1.0,5.0,28,0.00,CLR,CLR,0.00,WeatherDisplay:10.37,2013-08-13 19:55:00,
2013-08-13 14:00:00,80.5,42.4,29.93,NW,308,1.0,8.0,26,0.00,CLR,CLR,0.00,WeatherDisplay:10.37,2013-08-13 20:00:00,
2013-08-13 14:05:00,80.8,43.7,29.93,WNW,293,1.0,8.0,27,0.00,CLR,CLR,0.00,WeatherDisplay:10.37,2013-08-13 20:05:00,
2013-08-13 14:10:00,81.1,43.0,29.93,West,271,1.0,10.0,26,0.00,CLR,CLR,0.00,WeatherDisplay:10.37,2013-08-13 20:10:00,
2013-08-13 14:15:00,80.8,44.6,29.92,SW,236,5.0,9.0,28,0.00,CLR,CLR,0.00,WeatherDisplay:10.37,2013-08-13 20:15:00,
2013-08-13 14:20:00,81.1,44.9,29.92,SW,225,1.0,6.0,28,0.00,CLR,CLR,0.00,WeatherDisplay:10.37,2013-08-13 20:20:00,
2013-08-13 14:30:00,81.5,43.3,29.92,WSW,254,5.0,12.0,26,0.00,CLR,CLR,0.00,WeatherDisplay:10.37,2013-08-13 20:30:00,
2013-08-13 14:35:00,82.0,44.7,29.92,West,261,3.0,12.0,27,0.00,CLR,CLR,0.00,WeatherDisplay:10.37,2013-08-13 20:35:00,
2013-08-13 14:40:00,82.3,45.0,29.92,West,261,1.0,7.0,27,0.00,CLR,CLR,0.00,WeatherDisplay:10.37,2013-08-13 20:40:00,
2013-08-13 14:45:00,82.7,45.3,29.91,West,264,1.0,11.0,27,0.00,CLR,CLR,0.00,WeatherDisplay:10.37,2013-08-13 20:45:00,
2013-08-13 14:50:00,82.8,43.4,29.91,West,262,0.0,12.0,25,0.00,CLR,CLR,0.00,WeatherDisplay:10.37,2013-08-13 20:50:00,
2013-08-13 14:55:00,83.0,46.5,29.91,West,263,1.0,6.0,28,0.00,CLR,CLR,0.00,WeatherDisplay:10.37,2013-08-13 20:55:00,
2013-08-13 15:00:00,82.0,43.7,29.91,SE,142,3.0,10.0,26,0.00,CLR,CLR,0.00,WeatherDisplay:10.37,2013-08-13 21:00:00,
2013-08-13 15:05:00,80.5,43.5,29.91,North,5,0.0,10.0,27,0.00,CLR,CLR,0.00,WeatherDisplay:10.37,2013-08-13 21:05:00,
2013-08-13 15:10:00,80.8,44.7,29.90,North,10,5.0,12.0,28,0.00,CLR,CLR,0.00,WeatherDisplay:10.37,2013-08-13 21:10:00,
2013-08-13 15:15:00,81.1,47.6,29.90,ENE,58,2.0,12.0,31,0.00,CLR,CLR,0.00,WeatherDisplay:10.37,2013-08-13 21:15:00,
2013-08-13 15:20:00,81.5,45.2,29.90,NNE,26,3.0,10.0,28,0.00,CLR,CLR,0.00,WeatherDisplay:10.37,2013-08-13 21:20:00,
2013-08-13 15:25:00,81.7,43.5,29.90,NNW,330,2.0,12.0,26,0.00,CLR,CLR,0.00,WeatherDisplay:10.37,2013-08-13 21:25:00,
2013-08-13 15:30:00,81.8,46.4,29.89,NNW,340,0.0,9.0,29,0.00,CLR,CLR,0.00,WeatherDisplay:10.37,2013-08-13 21:30:00,
2013-08-13 15:35:00,82.0,45.7,29.89,NNE,17,2.0,9.0,28,0.00,CLR,CLR,0.00,WeatherDisplay:10.37,2013-08-13 21:35:00,
2013-08-13 15:40:00,82.2,45.8,29.89,ENE,62,0.0,6.0,28,0.00,CLR,CLR,0.00,WeatherDisplay:10.37,2013-08-13 21:40:00,
2013-08-13 15:45:00,82.6,44.3,29.89,ENE,71,0.0,3.0,26,0.00,CLR,CLR,0.00,WeatherDisplay:10.37,2013-08-13 21:45:00,
2013-08-13 15:50:00,83.1,42.6,29.89,WNW,282,0.0,6.0,24,0.00,CLR,CLR,0.00,WeatherDisplay:10.37,2013-08-13 21:50:00,
2013-08-13 15:55:00,82.8,43.4,29.89,WNW,291,0.0,4.0,25,0.00,CLR,CLR,0.00,WeatherDisplay:10.37,2013-08-13 21:55:00,
2013-08-13 16:00:00,82.9,43.5,29.89,WNW,289,0.0,3.0,25,0.00,CLR,CLR,0.00,WeatherDisplay:10.37,2013-08-13 22:00:00,
2013-08-13 16:05:00,83.2,41.5,29.88,WNW,283,0.0,2.0,23,0.00,CLR,CLR,0.00,WeatherDisplay:10.37,2013-08-13 22:05:00,
2013-08-13 16:10:00,82.8,43.4,29.88,WSW,253,3.0,8.0,25,0.00,CLR,CLR,0.00,WeatherDisplay:10.37,2013-08-13 22:10:00,
2013-08-13 16:15:00,83.0,44.6,29.88,WSW,238,0.0,2.0,26,0.00,CLR,CLR,0.00,WeatherDisplay:10.37,2013-08-13 22:15:00,
2013-08-13 16:20:00,83.3,41.7,29.88,SW,220,0.0,0.0,23,0.00,CLR,CLR,0.00,WeatherDisplay:10.37,2013-08-13 22:20:00,
2013-08-13 16:25:00,83.8,44.2,29.88,SSW,211,0.0,0.0,25,0.00,CLR,CLR,0.00,WeatherDisplay:10.37,2013-08-13 22:25:00,
2013-08-13 16:30:00,83.5,44.0,29.87,South,185,0.0,5.0,25,0.00,CLR,CLR,0.00,WeatherDisplay:10.37,2013-08-13 22:30:00,
2013-08-13 16:35:00,82.7,43.3,29.87,SE,144,1.0,5.0,25,0.00,CLR,CLR,0.00,WeatherDisplay:10.37,2013-08-13 22:35:00,
2013-08-13 16:40:00,81.7,43.5,29.87,SE,144,0.0,1.0,26,0.00,CLR,CLR,0.00,WeatherDisplay:10.37,2013-08-13 22:40:00,
2013-08-13 16:45:00,81.4,45.2,29.88,SE,144,0.0,0.0,28,0.00,CLR,CLR,0.00,WeatherDisplay:10.37,2013-08-13 22:45:00,
2013-08-13 16:50:00,81.4,42.2,29.87,SSE,157,0.0,6.0,25,0.00,CLR,CLR,0.00,WeatherDisplay:10.37,2013-08-13 22:50:00,
2013-08-13 17:00:00,80.7,44.6,29.87,West,276,0.0,0.0,28,0.00,CLR,CLR,0.00,WeatherDisplay:10.37,2013-08-13 23:00:00,
2013-08-13 17:05:00,80.6,47.2,29.86,SW,232,0.0,0.0,31,0.00,CLR,CLR,0.00,WeatherDisplay:10.37,2013-08-13 23:05:00,
2013-08-13 17:10:00,80.2,40.1,29.86,SSW,199,0.0,3.0,24,0.00,CLR,CLR,0.00,WeatherDisplay:10.37,2013-08-13 23:10:00,
2013-08-13 17:20:00,79.6,43.6,29.86,SE,139,0.0,0.0,28,0.00,CLR,CLR,0.00,WeatherDisplay:10.37,2013-08-13 23:20:00,
2013-08-13 17:25:00,79.5,48.7,29.86,SE,140,0.0,0.0,34,0.00,CLR,CLR,0.00,WeatherDisplay:10.37,2013-08-13 23:25:00,
2013-08-13 17:30:00,79.4,46.1,29.86,SE,138,0.0,0.0,31,0.00,CLR,CLR,0.00,WeatherDisplay:10.37,2013-08-13 23:30:00,
2013-08-13 17:40:00,79.2,41.3,29.86,ENE,78,3.0,10.0,26,0.00,CLR,CLR,0.00,WeatherDisplay:10.37,2013-08-13 23:40:00,
2013-08-13 17:45:00,78.8,42.0,29.86,NNW,333,1.0,10.0,27,0.00,CLR,CLR,0.00,WeatherDisplay:10.37,2013-08-13 23:45:00,
2013-08-13 17:50:00,78.5,40.8,29.86,NNW,340,1.0,12.0,26,0.00,CLR,CLR,0.00,WeatherDisplay:10.37,2013-08-13 23:50:00,
2013-08-13 17:55:00,78.3,39.6,29.86,NNW,345,3.0,10.0,25,0.00,CLR,CLR,0.00,WeatherDisplay:10.37,2013-08-13 23:55:00,
2013-08-13 18:00:00,78.3,40.6,29.87,North,351,7.0,12.0,26,0.00,CLR,CLR,0.00,WeatherDisplay:10.37,2013-08-14 00:00:00,
2013-08-13 18:10:00,78.7,41.9,29.87,NNW,346,12.0,21.0,27,0.00,CLR,CLR,0.00,WeatherDisplay:10.37,2013-08-14 00:10:00,
2013-08-13 18:15:00,78.0,42.2,29.87,NNW,337,3.0,18.0,28,0.00,CLR,CLR,0.00,WeatherDisplay:10.37,2013-08-14 00:15:00,
2013-08-13 18:20:00,77.2,41.6,29.88,North,349,14.0,22.0,28,0.00,CLR,CLR,0.00,WeatherDisplay:10.37,2013-08-14 00:20:00,
2013-08-13 18:25:00,76.3,41.7,29.88,North,352,9.0,17.0,29,0.00,CLR,CLR,0.00,WeatherDisplay:10.37,2013-08-14 00:25:00,
2013-08-13 18:30:00,75.8,42.1,29.88,North,349,2.0,20.0,30,0.00,CLR,CLR,0.00,WeatherDisplay:10.37,2013-08-14 00:30:00,
2013-08-13 18:35:00,75.7,42.1,29.87,North,360,8.0,14.0,30,0.00,CLR,CLR,0.00,WeatherDisplay:10.37,2013-08-14 00:35:00,
2013-08-13 18:40:00,76.3,42.5,29.88,North,6,6.0,12.0,30,0.00,CLR,CLR,0.00,WeatherDisplay:10.37,2013-08-14 00:40:00,
2013-08-13 18:45:00,77.0,43.2,29.88,North,2,3.0,12.0,30,0.00,CLR,CLR,0.00,WeatherDisplay:10.37,2013-08-14 00:45:00,
2013-08-13 18:50:00,77.5,42.7,29.88,North,358,3.0,13.0,29,0.00,CLR,CLR,0.00,WeatherDisplay:10.37,2013-08-14 00:50:00,
2013-08-13 18:55:00,77.5,41.8,29.88,North,360,3.0,12.0,28,0.00,CLR,CLR,0.00,WeatherDisplay:10.37,2013-08-14 00:55:00,
2013-08-13 19:05:00,77.6,42.8,29.88,North,4,0.0,0.0,29,0.00,CLR,CLR,0.00,WeatherDisplay:10.37,2013-08-14 01:05:00,
2013-08-13 19:10:00,77.7,45.5,29.87,North,3,0.0,0.0,32,0.00,CLR,CLR,0.00,WeatherDisplay:10.37,2013-08-14 01:10:00,
2013-08-13 19:15:00,76.4,46.0,29.87,North,3,0.0,0.0,34,0.00,CLR,CLR,0.00,WeatherDisplay:10.37,2013-08-14 01:15:00,
2013-08-13 19:20:00,75.3,46.5,29.87,North,4,0.0,0.0,36,0.00,CLR,CLR,0.00,WeatherDisplay:10.37,2013-08-14 01:20:00,
2013-08-13 19:25:00,74.6,45.1,29.87,North,4,0.0,0.0,35,0.00,CLR,CLR,0.00,WeatherDisplay:10.37,2013-08-14 01:25:00,
2013-08-13 19:30:00,74.0,44.6,29.87,East,94,0.0,0.0,35,0.00,CLR,CLR,0.00,WeatherDisplay:10.37,2013-08-14 01:30:00,
2013-08-13 19:35:00,73.1,46.0,29.88,SSE,157,0.0,0.0,38,0.00,CLR,CLR,0.00,WeatherDisplay:10.37,2013-08-14 01:35:00,
2013-08-13 19:40:00,71.7,46.7,29.88,SSE,158,1.0,5.0,41,0.00,CLR,CLR,0.00,WeatherDisplay:10.37,2013-08-14 01:40:00,
2013-08-13 19:45:00,70.6,45.8,29.88,SSE,154,1.0,5.0,41,0.00,CLR,CLR,0.00,WeatherDisplay:10.37,2013-08-14 01:45:00,
2013-08-13 19:50:00,69.5,46.1,29.88,SSE,154,0.0,4.0,43,0.00,CLR,CLR,0.00,WeatherDisplay:10.37,2013-08-14 01:50:00,
2013-08-13 19:55:00,68.2,46.0,29.88,SSE,154,0.0,3.0,45,0.00,CLR,CLR,0.00,WeatherDisplay:10.37,2013-08-14 01:55:00,
2013-08-13 20:05:00,65.6,45.4,29.88,SSE,152,3.0,5.0,48,0.00,CLR,CLR,0.00,WeatherDisplay:10.37,2013-08-14 02:05:00,
2013-08-13 20:10:00,64.6,45.0,29.88,SSE,149,1.0,5.0,49,0.00,CLR,CLR,0.00,WeatherDisplay:10.37,2013-08-14 02:10:00,
2013-08-13 20:20:00,63.2,44.3,29.88,SE,146,5.0,6.0,50,0.00,CLR,CLR,0.00,WeatherDisplay:10.37,2013-08-14 02:20:00,
2013-08-13 20:25:00,62.7,43.7,29.89,SE,144,2.0,6.0,50,0.00,CLR,CLR,0.00,WeatherDisplay:10.37,2013-08-14 02:25:00,
2013-08-13 20:30:00,62.4,44.0,29.89,SE,138,0.0,0.0,51,0.00,CLR,CLR,0.00,WeatherDisplay:10.37,2013-08-14 02:30:00,
2013-08-13 20:35:00,62.3,44.0,29.89,ESE,110,0.0,0.0,51,0.00,CLR,CLR,0.00,WeatherDisplay:10.37,2013-08-14 02:35:00,
2013-08-13 20:40:00,62.6,43.2,29.89,ESE,104,0.0,3.0,49,0.00,CLR,CLR,0.00,WeatherDisplay:10.37,2013-08-14 02:40:00,
2013-08-13 20:45:00,62.9,44.4,29.90,ESE,106,0.0,0.0,51,0.00,CLR,CLR,0.00,WeatherDisplay:10.37,2013-08-14 02:45:00,
2013-08-13 20:50:00,61.7,43.4,29.90,SE,131,5.0,6.0,51,0.00,CLR,CLR,0.00,WeatherDisplay:10.37,2013-08-14 02:50:00,
2013-08-13 20:55:00,61.5,43.2,29.90,SE,145,0.0,3.0,51,0.00,CLR,CLR,0.00,WeatherDisplay:10.37,2013-08-14 02:55:00,
2013-08-13 21:05:00,61.5,42.7,29.90,SE,139,1.0,4.0,50,0.00,CLR,CLR,0.00,WeatherDisplay:10.37,2013-08-14 03:05:00,
2013-08-13 21:10:00,61.9,43.0,29.90,SE,129,1.0,9.0,50,0.00,CLR,CLR,0.00,WeatherDisplay:10.37,2013-08-14 03:10:00,
2013-08-13 21:15:00,61.7,42.9,29.90,ESE,122,2.0,5.0,50,0.00,CLR,CLR,0.00,WeatherDisplay:10.37,2013-08-14 03:15:00,
2013-08-13 21:25:00,61.3,42.5,29.91,ESE,112,0.0,1.0,50,0.00,CLR,CLR,0.00,WeatherDisplay:10.37,2013-08-14 03:25:00,
2013-08-13 21:30:00,60.5,42.2,29.91,ESE,119,0.0,4.0,51,0.00,CLR,CLR,0.00,WeatherDisplay:10.37,2013-08-14 03:30:00,
2013-08-13 21:35:00,59.9,42.2,29.91,SE,128,0.0,1.0,52,0.00,CLR,CLR,0.00,WeatherDisplay:10.37,2013-08-14 03:35:00,
2013-08-13 21:40:00,59.5,41.9,29.91,SE,127,1.0,4.0,52,0.00,CLR,CLR,0.00,WeatherDisplay:10.37,2013-08-14 03:40:00,
2013-08-13 21:45:00,59.4,42.3,29.91,ESE,117,0.0,5.0,53,0.00,CLR,CLR,0.00,WeatherDisplay:10.37,2013-08-14 03:45:00,
2013-08-13 21:50:00,59.3,42.2,29.91,ESE,114,0.0,5.0,53,0.00,CLR,CLR,0.00,WeatherDisplay:10.37,2013-08-14 03:50:00,
2013-08-13 21:55:00,59.2,42.1,29.91,ESE,110,1.0,5.0,53,0.00,CLR,CLR,0.00,WeatherDisplay:10.37,2013-08-14 03:55:00,
2013-08-13 22:05:00,59.8,42.1,29.92,ESE,102,1.0,5.0,52,0.00,CLR,CLR,0.00,WeatherDisplay:10.37,2013-08-14 04:05:00,
2013-08-13 22:10:00,59.4,42.3,29.92,ESE,108,1.0,5.0,53,0.00,CLR,CLR,0.00,WeatherDisplay:10.37,2013-08-14 04:10:00,
2013-08-13 22:15:00,59.1,41.4,29.92,ESE,118,5.0,10.0,52,0.00,CLR,CLR,0.00,WeatherDisplay:10.37,2013-08-14 04:15:00,
2013-08-13 22:20:00,59.3,41.7,29.91,ESE,114,2.0,9.0,52,0.00,CLR,CLR,0.00,WeatherDisplay:10.37,2013-08-14 04:20:00,
2013-08-13 22:25:00,59.0,41.9,29.92,ESE,111,2.0,4.0,53,0.00,CLR,CLR,0.00,WeatherDisplay:10.37,2013-08-14 04:25:00,
2013-08-13 22:30:00,58.5,41.9,29.91,SE,124,1.0,4.0,54,0.00,CLR,CLR,0.00,WeatherDisplay:10.37,2013-08-14 04:30:00,
2013-08-13 22:35:00,57.8,41.3,29.92,SE,132,3.0,5.0,54,0.00,CLR,CLR,0.00,WeatherDisplay:10.37,2013-08-14 04:35:00,
2013-08-13 22:40:00,57.1,41.5,29.91,SE,137,0.0,3.0,56,0.00,CLR,CLR,0.00,WeatherDisplay:10.37,2013-08-14 04:40:00,
2013-08-13 22:45:00,56.9,41.4,29.91,SE,133,0.0,3.0,56,0.00,CLR,CLR,0.00,WeatherDisplay:10.37,2013-08-14 04:45:00,
2013-08-13 22:50:00,57.1,41.1,29.92,ESE,118,0.0,2.0,55,0.00,CLR,CLR,0.00,WeatherDisplay:10.37,2013-08-14 04:50:00,
2013-08-13 23:00:00,57.9,41.3,29.92,ESE,106,3.0,10.0,54,0.00,CLR,CLR,0.00,WeatherDisplay:10.37,2013-08-14 05:00:00,
2013-08-13 23:05:00,58.9,41.3,29.92,ESE,110,3.0,12.0,52,0.00,CLR,CLR,0.00,WeatherDisplay:10.37,2013-08-14 05:05:00,
2013-08-13 23:15:00,59.0,41.4,29.92,East,101,2.0,12.0,52,0.00,CLR,CLR,0.00,WeatherDisplay:10.37,2013-08-14 05:15:00,
2013-08-13 23:20:00,59.0,41.4,29.92,ESE,109,2.0,6.0,52,0.00,CLR,CLR,0.00,WeatherDisplay:10.37,2013-08-14 05:20:00,
2013-08-13 23:25:00,58.4,41.4,29.92,ESE,117,1.0,12.0,53,0.00,CLR,CLR,0.00,WeatherDisplay:10.37,2013-08-14 05:25:00,
2013-08-13 23:30:00,58.0,41.0,29.92,ESE,116,1.0,6.0,53,0.00,CLR,CLR,0.00,WeatherDisplay:10.37,2013-08-14 05:30:00,
2013-08-13 23:35:00,57.6,41.1,29.92,ESE,121,3.0,5.0,54,0.00,CLR,CLR,0.00,WeatherDisplay:10.37,2013-08-14 05:35:00,
2013-08-13 23:40:00,57.1,40.6,29.92,SE,130,3.0,6.0,54,0.00,CLR,CLR,0.00,WeatherDisplay:10.37,2013-08-14 05:40:00,
2013-08-13 23:45:00,56.2,40.7,29.92,SE,140,5.0,7.0,56,0.00,CLR,CLR,0.00,WeatherDisplay:10.37,2013-08-14 05:45:00,
2013-08-13 23:50:00,54.2,40.2,29.92,SSE,149,5.0,6.0,59,0.00,CLR,CLR,0.00,WeatherDisplay:10.37,2013-08-14 05:50:00,
2013-08-13 23:55:00,53.2,40.5,29.92,SSE,151,3.0,5.0,62,0.00,CLR,CLR,0.00,WeatherDisplay:10.37,2013-08-14 05:55:00,